カタログに戻る

STARLINK-34632

運用中通信VLEO
NORAD 64792·PAYLOAD·🇺🇸 United States

打ち上げ Jul 16, 2025 から Vandenberg Space Force Base

Loading…

次のパス (今後24時間)

TLE

最新Source: CelesTrak SupGP

元期: Sep 14, 2026, 20:40 UTC

1 64792C 25150C   26257.86159722 -.00010751  00000+0 -90089-3 0  2574
2 64792  70.0027  17.4283 0003094 269.6287   9.3225 14.98338012    18

AllMySatでSTARLINK-34632をリアルタイム追跡

Download on the App Store